Вернуться в каталог

STARLINK-30429

АктивенСвязьVLEO
NORAD 57876·PAYLOAD·🇺🇸 United States

Запущен Sep 16, 2023 с Cape Canaveral Space Force Station

Loading…

Ближайшие Пролёты (ближайшие 24 часа)

TLE

СвежийSource: CelesTrak SupGP

Эпоха: Sep 14, 2026, 14:32 UTC

1 57876C 23144N   26257.60604167  .00048987  00000+0  17746-2 0  2578
2 57876  43.0015 298.5979 0001749 275.2440 182.3881 15.27548245    17

Отслеживайте STARLINK-30429 в реальном времени с AllMySat

Download on the App Store